Location: Fort Collins
(40.5850°N, 105.0840°W)
Time: 11:20:35
(UTC-06:00)

Cosmos 2297 Rocket - Visible Passes

Search period start: 03 July 2015 00:00
Search period end: 13 July 2015 00:00
Orbit: 839 x 845 km, 71.0° (Epoch: 01 July)

Date Brightness Start Highest point End Pass type
(mag) Time Alt. Az. Time Alt. Az. Time Alt. Az.
03 Jul 2.1 01:45:14 68° SSE 01:45:43 72° ESE 01:51:22 10° NNE visible
03 Jul 4.1 03:27:02 12° W 03:30:27 18° NW 03:34:13 10° N visible
04 Jul 2.1 01:30:24 67° SE 01:30:40 68° ESE 01:36:18 10° NNE visible
04 Jul 4.1 03:12:12 13° W 03:15:21 19° NW 03:19:15 10° N visible
05 Jul 2.2 01:15:32 65° ESE 01:15:37 65° ESE 01:21:14 10° NNE visible
05 Jul 4.1 02:57:19 14° W 03:00:15 20° NW 03:04:17 10° N visible
06 Jul 2.3 01:00:38 61° ESE 01:00:38 61° ESE 01:06:10 10° NNE visible
06 Jul 4.0 02:42:25 15° W 02:45:09 21° NW 02:49:18 10° N visible
07 Jul 2.3 00:45:41 58° ESE 00:45:41 58° ESE 00:51:05 10° NNE visible
07 Jul 4.0 02:27:29 17° W 02:30:03 22° NW 02:34:19 10° N visible
08 Jul 2.4 00:30:42 54° E 00:30:42 54° E 00:36:00 10° NNE visible
08 Jul 4.0 02:12:30 18° W 02:14:57 23° NW 02:19:20 10° N visible
09 Jul 2.5 00:15:41 51° E 00:15:41 51° E 00:20:56 10° NNE visible
09 Jul 3.9 01:57:28 19° W 01:59:51 24° NW 02:04:20 10° N visible
10 Jul 2.5 00:00:37 49° E 00:00:37 49° E 00:05:51 10° NE visible
10 Jul 3.9 01:42:24 20° W 01:44:46 25° NW 01:49:20 10° N visible
10 Jul 2.5 23:45:31 46° ESE 23:45:31 46° ESE 23:50:45 10° NE visible
11 Jul 3.9 01:27:17 20° W 01:29:40 26° NW 01:34:20 10° N visible
11 Jul 2.6 23:30:20 44° ESE 23:30:20 44° ESE 23:35:40 10° NE visible
12 Jul 3.8 01:12:06 21° W 01:14:35 28° NW 01:19:21 10° N visible
12 Jul 2.6 23:15:06 41° ESE 23:15:16 41° ESE 23:20:34 10° NE visible
